Location: ActonStarParty
(42.4766°N, 71.4538°W)
Time: 14:08:46
(UTC-05:00)

Amateur Radio Satellites - All Passes

Search period start: 26 February 2017 13:38
Search period end: 27 February 2017 13:38
Location: ActonStarParty, 42.4766°N, 71.4538°W

Satellite Date Start Highest point End Downlink Frequencies (MHz)
Time Altitude Azimuth
AO-7 26 Feb 13:44:31 13:52:37 58° 64° (ENE) 14:00:44 .
ITUPSAT 1 26 Feb 13:48:35 13:52:22 23° 94° (E) 13:56:07 437.325
Gurwin Techsat 1B 26 Feb 13:49:54 13:54:24 28° 265° (W) 13:58:57 435.225
BEESAT 26 Feb 13:54:11 13:58:13 26° 95° (E) 14:02:12 436.000
Tancredo 1 26 Feb 13:57:52 14:00:56 41° 221° (SW) 14:03:58 437.200
BEESAT 3 26 Feb 13:59:50 14:03:46 51° 53° (NE) 14:07:40 437.485
MOZHAYETS 4 26 Feb 14:06:05 14:08:03 12° 89° (E) 14:10:00
BEESAT 2 26 Feb 14:40:42 14:44:43 57° 54° (NE) 14:48:41 435.950
ITAMSAT 1 26 Feb 15:11:18 15:15:36 26° 265° (W) 15:19:55 435.822/435.867
RS-15 26 Feb 15:18:12 15:27:32 28° 101° (E) 15:37:05 29.354- 29.394
PCSat 26 Feb 15:25:37 15:30:56 61° 115° (ESE) 15:36:18 145.827
ITUPSAT 1 26 Feb 15:25:50 15:30:19 39° 291° (WNW) 15:34:45 437.325
BEESAT 26 Feb 15:31:42 15:36:01 34° 292° (WNW) 15:40:17 436.000
AO-7 26 Feb 15:38:21 15:45:41 34° 263° (W) 15:53:05 .
BEESAT 3 26 Feb 15:38:37 15:40:58 15° 250° (WSW) 15:43:17 437.485
MOZHAYETS 4 26 Feb 15:41:05 15:45:40 66° 286° (WNW) 15:50:12
KKS-1 26 Feb 16:02:40 16:07:03 52° 100° (E) 16:11:25 437.445
KAITUO 1B 26 Feb 16:15:12 16:17:39 17° 66° (ENE) 16:20:08 145.475/437.950
DOVE 4 26 Feb 16:17:15 16:20:38 25° 68° (ENE) 16:24:05 437.250
BEESAT 2 26 Feb 16:19:57 16:22:01 14° 251° (WSW) 16:24:05 435.950
XW-2F 26 Feb 16:21:27 16:24:31 23° 68° (ENE) 16:27:35 145.980 - 146.000
NO-84 26 Feb 16:24:54 16:28:05 83° 136° (SE) 16:31:35 435.350 FM
XW-2D 26 Feb 16:26:38 16:29:56 28° 70° (ENE) 16:33:15 145.860 - 145.880
CUTE-I 26 Feb 16:27:46 16:32:34 35° 67° (ENE) 16:37:24 437.470
XW-2B 26 Feb 16:31:36 16:35:00 30° 70° (ENE) 16:38:24 145.730 - 145.750
STARS 26 Feb 16:33:06 16:37:25 49° 100° (E) 16:41:43 437.465
M-CUBED/EXP-1 PRIME 26 Feb 16:34:45 16:37:40 20° 101° (E) 16:40:43 437.505
XW-2C 26 Feb 16:40:04 16:43:39 38° 72° (ENE) 16:47:17 145.795 - 145.815
CUBESAT XI-V 26 Feb 16:43:49 16:48:27 90° 212° (SSW) 16:53:02 437.345
NUDT-PHONESAT 26 Feb 16:47:17 16:50:47 37° 72° (ENE) 16:54:18 437.300
HO-68 26 Feb 16:52:46 16:57:54 22° 56° (NE) 17:03:03 435.675
LilacSat-2 26 Feb 16:58:04 17:01:55 68° 75° (ENE) 17:05:48 437.200
PCSat 26 Feb 17:10:25 17:14:44 24° 315° (NW) 17:19:05 145.827
RS-15 26 Feb 17:26:33 17:38:33 85° 303° (WNW) 17:51:02 29.354- 29.394
XW-2A 26 Feb 17:39:19 17:42:14 27° 71° (ENE) 17:45:11 145.665 - 145.685
KKS-1 26 Feb 17:40:21 17:43:12 17° 297° (WNW) 17:46:02 437.445
KAITUO 1B 26 Feb 17:47:52 17:51:24 36° 262° (W) 17:54:57 145.475/437.950
CUTE 1.7 + AOD 2 26 Feb 17:53:52 17:57:40 32° 70° (ENE) 18:01:29 437.475
DOVE 4 26 Feb 17:54:47 17:58:17 26° 265° (W) 18:01:51 437.250
XW-2F 26 Feb 17:55:19 17:58:33 26° 265° (W) 18:01:49 145.980 - 146.000
XW-2D 26 Feb 18:01:08 18:04:07 21° 266° (W) 18:07:07 145.860 - 145.880
NO-84 26 Feb 18:03:38 18:06:11 19° 339° (NNW) 18:08:56 435.350 FM
XW-2B 26 Feb 18:06:26 18:09:14 19° 267° (W) 18:12:04 145.730 - 145.750
CUTE-I 26 Feb 18:07:55 18:12:36 31° 264° (W) 18:17:21 437.470
M-CUBED/EXP-1 PRIME 26 Feb 18:08:43 18:12:10 33° 294° (WNW) 18:15:49 437.505
STARS 26 Feb 18:10:28 18:13:22 17° 297° (WNW) 18:16:15 437.465
XW-2C 26 Feb 18:15:43 18:18:02 15° 268° (W) 18:20:21 145.795 - 145.815
NUDT-PHONESAT 26 Feb 18:22:40 18:24:52 15° 268° (W) 18:27:06 437.300
CUBESAT XI-V 26 Feb 18:24:15 18:25:05 10° 301° (WNW) 18:25:54 437.345
CUBEBUG 2 26 Feb 18:26:19 18:30:20 34° 69° (ENE) 18:34:29 437.445
AO-73 26 Feb 18:31:58 18:34:23 14° 62° (ENE) 18:36:50 145.935
AAUSAT CUBESAT 2 26 Feb 18:33:47 18:37:21 28° 69° (ENE) 18:40:55 437.432
Oscar 11 26 Feb 18:37:12 18:39:22 14° 63° (ENE) 18:41:32 .
HO-68 26 Feb 18:37:38 18:44:49 81° 254° (WSW) 18:52:03 435.675
SEEDS 26 Feb 18:47:58 18:52:12 84° 79° (E) 18:56:27 437.485
UWE-3 26 Feb 19:00:23 19:04:41 48° 72° (ENE) 19:09:08 435.000/436.395/437.385
XW-2A 26 Feb 19:12:50 19:15:03 16° 267° (W) 19:17:17 145.665 - 145.685
ZACube-1 26 Feb 19:18:13 19:22:28 44° 72° (ENE) 19:26:50 437.345
STRAND 1 26 Feb 19:19:42 19:24:54 87° 109° (ESE) 19:30:02 437.568
CUTE 1.7 + AOD 2 26 Feb 19:30:08 19:33:31 23° 266° (W) 19:36:56 437.475
RS-15 26 Feb 19:42:21 19:53:08 35° 331° (NNW) 20:04:07 29.354- 29.394
NO-84 26 Feb 19:43:27 19:45:06 12° 1° (N) 19:46:47 435.350 FM
DELFI C3 26 Feb 19:53:47 19:57:05 26° 69° (ENE) 20:00:21 145.870
YUBILEINY 26 Feb 20:02:42 20:10:38 37° 70° (ENE) 20:18:28 435.215
CUBEBUG 2 26 Feb 20:03:23 20:07:00 24° 267° (W) 20:10:44 437.445
AO-73 26 Feb 20:05:39 20:10:04 63° 259° (W) 20:14:36 145.935
AAUSAT CUBESAT 2 26 Feb 20:09:24 20:12:47 24° 265° (W) 20:16:11 437.432
Oscar 11 26 Feb 20:10:40 20:14:59 62° 259° (W) 20:19:19 .
SO-50 26 Feb 20:26:35 20:29:38 17° 110° (ESE) 20:32:40 436.795
PRISM 26 Feb 20:29:29 20:32:29 20° 94° (E) 20:35:29 437.425
HO-68 26 Feb 20:30:08 20:33:34 14° 273° (W) 20:37:01 435.675
UWE-3 26 Feb 20:38:29 20:41:25 17° 269° (W) 20:44:24 435.000/436.395/437.385
ZACube-1 26 Feb 20:55:52 20:58:58 18° 269° (W) 21:02:07 437.345
STRAND 1 26 Feb 21:00:57 21:03:19 13° 302° (WNW) 21:05:41 437.568
FO-29 26 Feb 21:03:31 21:08:12 18° 85° (E) 21:12:38 435.910
TIGRISAT 26 Feb 21:06:45 21:10:29 23° 93° (E) 21:14:07 435.000
UNISAT 6 26 Feb 21:06:51 21:10:41 24° 94° (E) 21:14:27 437.425
O/OREOS (USA 219) 26 Feb 21:07:33 21:10:42 19° 101° (E) 21:13:53 437.305
NO-84 26 Feb 21:20:58 21:23:59 21° 22° (NNE) 21:27:10 435.350 FM
DELFI C3 26 Feb 21:28:34 21:31:49 24° 265° (W) 21:35:04 145.870
LO-87 26 Feb 21:42:47 21:46:15 57° 75° (ENE) 21:49:45 145.935 - 145.965
YUBILEINY 26 Feb 21:59:21 22:07:39 51° 271° (W) 22:15:54 435.215
RS-15 26 Feb 22:01:05 22:10:49 25° 6° (N) 22:20:29 29.354- 29.394
PRISM 26 Feb 22:04:10 22:07:51 33° 290° (WNW) 22:11:31 437.425
SO-50 26 Feb 22:05:03 22:09:40 58° 307° (NW) 22:14:14 436.795
ESTCUBE 1 26 Feb 22:23:22 22:27:53 86° 79° (ENE) 22:32:26 437.505/2401.250
DX 1 26 Feb 22:30:07 22:32:44 16° 63° (ENE) 22:35:24 434.975-435.025
PCSat 26 Feb 22:31:22 22:33:32 12° 34° (NE) 22:35:41 145.827
AIST 2D 26 Feb 22:37:47 22:40:55 28° 96° (E) 22:44:01 435.315
SPROUT 26 Feb 22:38:25 22:42:12 32° 69° (ENE) 22:46:02 437.525
UKube-1 26 Feb 22:39:18 22:41:38 14° 62° (ENE) 22:43:58 .
VELOX 1 26 Feb 22:42:04 22:46:14 45° 72° (ENE) 22:50:26 145.980
TIGRISAT 26 Feb 22:42:54 22:47:15 38° 290° (WNW) 22:51:32 435.000
UNISAT 6 26 Feb 22:43:08 22:47:26 36° 291° (WNW) 22:51:40 437.425
O/OREOS (USA 219) 26 Feb 22:45:31 22:49:46 42° 298° (WNW) 22:54:05 437.305
FO-29 26 Feb 22:46:35 22:54:17 88° 288° (WNW) 23:01:10 435.910
NO-84 26 Feb 22:58:06 23:02:10 80° 38° (NE) 23:06:31 435.350 FM
DUCHIFAT 1 26 Feb 23:09:41 23:13:36 34° 97° (E) 23:17:29 145.980
EO-79 26 Feb 23:22:12 23:26:27 57° 101° (E) 23:30:39 145.935-145.965
50 SAT 26 Feb 23:37:41 23:41:07 54° 260° (W) 23:44:33 437.505
NANOSAT C BR1 26 Feb 23:38:07 23:42:25 81° 104° (ESE) 23:46:40 145.865
POLYITAN 1 26 Feb 23:40:13 23:44:33 88° 283° (WNW) 23:48:50 437.675
QB50P2 26 Feb 23:43:17 23:47:35 76° 285° (WNW) 23:51:52 145.880/145.840
SO-50 26 Feb 23:49:29 23:51:06 12° 327° (NNW) 23:52:43 436.795
BUGSAT 1 26 Feb 23:59:54 00:03:59 43° 99° (E) 00:08:01 437.445
DX 1 27 Feb 00:04:19 00:08:32 51° 260° (W) 00:12:45 434.975-435.025
AIST 2D 27 Feb 00:11:30 00:13:56 18° 293° (WNW) 00:16:23 435.315
PCSat 27 Feb 00:12:48 00:18:10 56° 56° (NE) 00:23:29 145.827
UKube-1 27 Feb 00:12:58 00:17:11 57° 259° (WSW) 00:21:27 .
SPROUT 27 Feb 00:14:49 00:18:10 22° 266° (W) 00:21:32 437.525
RS-15 27 Feb 00:15:53 00:27:40 46° 39° (NE) 00:39:01 29.354- 29.394
VELOX 1 27 Feb 00:20:04 00:22:56 17° 268° (W) 00:25:47 145.980
Gurwin Techsat 1B 27 Feb 00:26:28 00:29:10 14° 89° (E) 00:31:51 435.225
FO-29 27 Feb 00:33:01 00:38:08 20° 306° (NW) 00:42:59 435.910
NO-84 27 Feb 00:36:55 00:39:30 16° 235° (SW) 00:42:09 435.350 FM
DUCHIFAT 1 27 Feb 00:45:48 00:49:04 22° 294° (WNW) 00:52:19 145.980
ITUPSAT 1 27 Feb 00:55:44 00:59:52 29° 67° (ENE) 01:04:01 437.325
EO-79 27 Feb 00:59:27 01:01:43 14° 297° (WNW) 01:04:00 145.935-145.965
BEESAT 27 Feb 01:00:59 01:05:15 33° 68° (ENE) 01:09:33 436.000
Oscar 19 27 Feb 01:05:31 01:10:34 57° 101° (E) 01:15:37 437.125/150
MOZHAYETS 4 27 Feb 01:08:36 01:11:06 15° 62° (ENE) 01:13:36
NANOSAT C BR1 27 Feb 01:16:38 01:17:28 10° 300° (WNW) 01:18:19 145.865
BUGSAT 1 27 Feb 01:36:08 01:39:00 18° 295° (WNW) 01:41:53 437.445
ITAMSAT 1 27 Feb 01:45:02 01:47:27 13° 89° (E) 01:49:51 435.822/435.867
AO-7 27 Feb 01:47:33 01:52:05 15° 88° (E) 01:56:35 .
PCSat 27 Feb 01:57:05 02:01:08 22° 253° (WSW) 02:05:09 145.827
Gurwin Techsat 1B 27 Feb 02:04:20 02:09:40 75° 286° (WNW) 02:14:59 435.225
AO-85 27 Feb 02:10:53 02:12:15 11° 109° (ESE) 02:13:34 145.980
CUBESAT XI-V 27 Feb 02:14:01 02:15:18 11° 60° (ENE) 02:16:34 437.345
RS-15 27 Feb 02:28:47 02:40:54 67° 245° (WSW) 02:52:28 29.354- 29.394
ITUPSAT 1 27 Feb 02:33:20 02:37:36 31° 263° (W) 02:41:54 437.325
BEESAT 27 Feb 02:38:59 02:43:02 27° 265° (W) 02:47:07 436.000
MOZHAYETS 4 27 Feb 02:43:05 02:47:42 66° 259° (W) 02:52:21
Oscar 19 27 Feb 02:45:54 02:49:27 19° 298° (WNW) 02:52:59 437.125/150
KKS-1 27 Feb 03:01:04 03:05:20 51° 72° (ENE) 03:09:40 437.445
M-CUBED/EXP-1 PRIME 27 Feb 03:22:05 03:24:43 23° 64° (ENE) 03:27:22 437.505
ITAMSAT 1 27 Feb 03:22:14 03:27:29 78° 286° (WNW) 03:32:42 435.822/435.867
STARS 27 Feb 03:30:04 03:34:14 47° 71° (ENE) 03:38:27 437.465
AO-7 27 Feb 03:37:42 03:46:04 80° 107° (ESE) 03:54:22 .
CUBESAT XI-V 27 Feb 03:47:17 03:51:58 88° 262° (W) 03:56:38 437.345
Gurwin Techsat 1B 27 Feb 03:47:17 03:48:42 11° 304° (NW) 03:50:05 435.225
AO-85 27 Feb 03:47:36 03:52:09 79° 305° (NW) 03:56:23 145.980
KKS-1 27 Feb 04:39:37 04:42:12 15° 268° (W) 04:44:48 437.445
RS-15 27 Feb 04:45:15 04:50:43 14° 267° (W) 04:56:08 29.354- 29.394
CUTE-I 27 Feb 04:45:47 04:48:05 13° 89° (E) 04:50:23 437.470
SO-50 27 Feb 04:55:59 04:59:30 22° 42° (NE) 05:02:58 436.795
M-CUBED/EXP-1 PRIME 27 Feb 04:56:52 04:59:12 18° 260° (W) 05:01:32 437.505
STRAND 1 27 Feb 04:59:14 05:02:36 18° 61° (ENE) 05:06:00 437.568
ITAMSAT 1 27 Feb 05:04:33 05:06:03 11° 304° (NW) 05:07:33 435.822/435.867
STARS 27 Feb 05:08:04 05:10:49 16° 268° (W) 05:13:36 437.465
KAITUO 1B 27 Feb 05:18:58 05:21:46 20° 94° (E) 05:24:32 145.475/437.950
XW-2F 27 Feb 05:26:32 05:29:52 29° 96° (E) 05:33:12 145.980 - 146.000
BEESAT 3 27 Feb 05:27:16 05:31:09 74° 121° (ESE) 05:35:07 437.485
AO-85 27 Feb 05:31:19 05:33:10 12° 322° (NW) 05:34:58 145.980
AO-7 27 Feb 05:31:33 05:37:59 26° 307° (NW) 05:44:24 .
XW-2D 27 Feb 05:32:14 05:35:47 36° 97° (E) 05:39:17 145.860 - 145.880
XW-2B 27 Feb 05:37:16 05:40:54 40° 98° (E) 05:44:29 145.730 - 145.750
XW-2C 27 Feb 05:45:55 05:49:41 52° 100° (E) 05:53:22 145.795 - 145.815
NUDT-PHONESAT 27 Feb 05:50:52 05:54:31 48° 99° (E) 05:58:09 437.300
DOVE 4 27 Feb 05:50:54 05:55:40 70° 102° (ESE) 06:00:41 437.250
LilacSat-2 27 Feb 06:04:49 06:08:41 85° 283° (WNW) 06:12:29 437.200
HO-68 27 Feb 06:06:09 06:10:53 19° 90° (E) 06:15:36 435.675
BEESAT 2 27 Feb 06:09:47 06:13:44 86° 122° (ESE) 06:17:46 435.950
ISS 27 Feb 06:15:20 06:17:59 23° 135° (SE) 06:20:40 437.550
CUTE-I 27 Feb 06:23:21 06:28:46 83° 286° (WNW) 06:34:09 437.470
SEEDS 27 Feb 06:32:49 06:34:47 13° 90° (E) 06:36:45 437.485
XW-2A 27 Feb 06:33:07 06:36:05 26° 96° (E) 06:39:03 145.665 - 145.685
Tancredo 1 27 Feb 06:35:38 06:38:40 37° 139° (SE) 06:41:42 437.200
SO-50 27 Feb 06:35:52 06:40:15 53° 241° (WSW) 06:44:36 436.795
STRAND 1 27 Feb 06:36:11 06:41:16 63° 259° (WSW) 06:46:24 437.568
KAITUO 1B 27 Feb 06:52:33 06:55:49 28° 290° (WNW) 06:59:02 145.475/437.950
XW-2F 27 Feb 07:01:01 07:03:51 20° 293° (WNW) 07:06:40 145.980 - 146.000
BEESAT 3 27 Feb 07:07:02 07:09:14 14° 320° (NW) 07:11:29 437.485
XW-2D 27 Feb 07:07:13 07:09:42 17° 294° (WNW) 07:12:09 145.860 - 145.880
XW-2B 27 Feb 07:12:30 07:14:45 15° 295° (WNW) 07:17:01 145.730 - 145.750
CUTE 1.7 + AOD 2 27 Feb 07:13:13 07:17:23 57° 100° (E) 07:21:31 437.475
O/OREOS (USA 219) 27 Feb 07:15:23 07:19:45 42° 62° (ENE) 07:24:06 437.305
FO-29 27 Feb 07:19:45 07:21:26 11° 46° (NE) 07:23:09 435.910
PRISM 27 Feb 07:19:56 07:22:30 16° 64° (ENE) 07:25:04 437.425
XW-2C 27 Feb 07:21:50 07:23:25 12° 296° (WNW) 07:24:58 145.795 - 145.815
NUDT-PHONESAT 27 Feb 07:26:21 07:28:02 13° 296° (WNW) 07:29:43 437.300
DOVE 4 27 Feb 07:30:15 07:32:52 15° 297° (WNW) 07:35:33 437.250
AAUSAT CUBESAT 2 27 Feb 07:49:54 07:53:53 47° 99° (E) 07:57:50 437.432
BEESAT 2 27 Feb 07:50:07 07:52:06 13° 322° (NW) 07:54:05 435.950
ISS 27 Feb 07:51:05 07:54:16 47° 332° (NNW) 07:57:29 437.550
HO-68 27 Feb 07:52:11 07:59:22 81° 289° (WNW) 08:06:31 435.675
CUBEBUG 2 27 Feb 07:52:15 07:57:02 71° 101° (E) 08:01:43 437.445
AO-73 27 Feb 07:53:31 07:57:13 24° 94° (E) 08:00:51 145.935
Oscar 11 27 Feb 07:57:45 08:01:11 22° 94° (E) 08:04:34 .
CUTE-I 27 Feb 08:05:49 08:07:57 12° 303° (WNW) 08:10:06 437.470
TIGRISAT 27 Feb 08:06:06 08:09:33 22° 65° (ENE) 08:13:05 435.000
XW-2A 27 Feb 08:06:17 08:08:41 18° 292° (WNW) 08:11:04 145.665 - 145.685
UNISAT 6 27 Feb 08:06:17 08:09:52 23° 66° (ENE) 08:13:31 437.425
SEEDS 27 Feb 08:06:44 08:10:48 53° 287° (WNW) 08:14:50 437.485
Tancredo 1 27 Feb 08:11:58 08:14:58 33° 336° (NNW) 08:17:58 437.200
UWE-3 27 Feb 08:25:24 08:30:06 84° 282° (WNW) 08:34:40 435.000/436.395/437.385
ZACube-1 27 Feb 08:41:46 08:46:22 87° 109° (ESE) 08:50:50 437.345
CUTE 1.7 + AOD 2 27 Feb 08:50:38 08:52:43 14° 297° (WNW) 08:54:49 437.475
PRISM 27 Feb 08:53:33 08:57:26 43° 261° (W) 09:01:20 437.425
O/OREOS (USA 219) 27 Feb 08:55:30 08:58:50 20° 259° (W) 09:02:09 437.305
FO-29 27 Feb 08:57:36 09:04:31 49° 67° (ENE) 09:11:56 435.910
DELFI C3 27 Feb 09:04:16 09:07:56 36° 98° (E) 09:11:33 145.870
YUBILEINY 27 Feb 09:04:28 09:12:29 41° 86° (E) 09:20:28 435.215
AIST 2D 27 Feb 09:14:15 09:15:54 13° 65° (ENE) 09:17:34 435.315
AAUSAT CUBESAT 2 27 Feb 09:26:33 09:28:57 15° 296° (WNW) 09:31:22 437.432
ISS 27 Feb 09:28:57 09:31:20 18° 351° (N) 09:33:42 437.550
AO-73 27 Feb 09:29:25 09:33:29 33° 291° (WNW) 09:37:28 145.935
CUBEBUG 2 27 Feb 09:30:32 09:33:01 14° 299° (WNW) 09:35:31 437.445
Oscar 11 27 Feb 09:33:29 09:37:21 33° 290° (WNW) 09:41:12 .
HO-68 27 Feb 09:41:42 09:46:01 17° 308° (NW) 09:50:21 435.675
TIGRISAT 27 Feb 09:41:43 09:45:57 40° 263° (W) 09:50:19 435.000
UNISAT 6 27 Feb 09:42:10 09:46:21 37° 263° (W) 09:50:39 437.425
Tancredo 1 27 Feb 09:49:47 09:51:57 16° 356° (N) 09:54:06 437.200
DUCHIFAT 1 27 Feb 10:02:05 10:05:40 28° 68° (ENE) 10:09:16 145.980
UWE-3 27 Feb 10:05:28 10:05:43 10° 301° (WNW) 10:05:59 435.000/436.395/437.385
EO-79 27 Feb 10:14:55 10:18:57 45° 72° (ENE) 10:23:01 145.935-145.965
ESTCUBE 1 27 Feb 10:16:15 10:19:12 17° 92° (E) 10:22:07 437.505/2401.250
ZACube-1 27 Feb 10:20:50 10:21:53 11° 300° (WNW) 10:22:56 437.345
NANOSAT C BR1 27 Feb 10:30:22 10:34:31 62° 73° (ENE) 10:38:43 145.865
POLYITAN 1 27 Feb 10:32:54 10:37:08 73° 74° (ENE) 10:41:24 437.675
QB50P2 27 Feb 10:35:58 10:40:12 85° 78° (ENE) 10:44:30 145.880/145.840
AO-85 27 Feb 10:39:25 10:41:20 13° 39° (NE) 10:43:14 145.980
DELFI C3 27 Feb 10:39:50 10:42:26 17° 294° (WNW) 10:45:03 145.870
LO-87 27 Feb 10:42:23 10:45:59 68° 102° (ESE) 10:49:35 145.935 - 145.965
FO-29 27 Feb 10:43:02 10:49:37 37° 266° (W) 10:56:43 435.910
AIST 2D 27 Feb 10:45:23 10:48:46 41° 262° (W) 10:52:11 435.315
Oscar 19 27 Feb 10:47:25 10:49:29 12° 58° (ENE) 10:51:34 437.125/150
BUGSAT 1 27 Feb 10:50:12 10:53:49 31° 69° (ENE) 10:57:29 437.445
YUBILEINY 27 Feb 11:00:47 11:09:09 46° 286° (WNW) 11:17:31 435.215
ISS 27 Feb 11:06:12 11:08:41 19° 12° (NNE) 11:11:09 437.550
Tancredo 1 27 Feb 11:26:26 11:29:03 22° 16° (NNE) 11:31:40 437.200
DUCHIFAT 1 27 Feb 11:37:47 11:41:17 26° 265° (W) 11:44:51 145.980
Gurwin Techsat 1B 27 Feb 11:47:31 11:51:47 25° 64° (ENE) 11:56:04 435.225
ESTCUBE 1 27 Feb 11:51:56 11:56:14 46° 289° (WNW) 12:00:30 437.505/2401.250
DX 1 27 Feb 11:52:02 11:55:39 25° 95° (E) 11:59:14 434.975-435.025
EO-79 27 Feb 11:52:20 11:54:56 16° 268° (W) 11:57:34 145.935-145.965
SPROUT 27 Feb 11:58:38 12:02:54 57° 101° (E) 12:07:08 437.525
UKube-1 27 Feb 11:59:49 12:03:10 21° 94° (E) 12:06:29 .
VELOX 1 27 Feb 12:07:20 12:11:46 85° 101° (E) 12:16:13 145.980
NANOSAT C BR1 27 Feb 12:09:13 12:10:39 11° 270° (W) 12:12:06 145.865
AO-85 27 Feb 12:18:19 12:22:14 79° 238° (WSW) 12:26:11 145.980
Oscar 19 27 Feb 12:22:52 12:28:02 89° 73° (ENE) 12:33:12 437.125/150
BUGSAT 1 27 Feb 12:26:07 12:29:14 21° 266° (W) 12:32:23 437.445
50 SAT 27 Feb 12:34:45 12:38:10 54° 286° (WNW) 12:41:32 437.505
ISS 27 Feb 12:42:22 12:45:38 61° 30° (NNE) 12:48:53 437.550
AO-7 27 Feb 12:46:45 12:53:25 28° 54° (NE) 13:00:04 .
Tancredo 1 27 Feb 13:02:25 13:05:40 86° 211° (SSW) 13:08:52 437.200
ITAMSAT 1 27 Feb 13:02:52 13:06:55 23° 63° (ENE) 13:11:00 435.822/435.867
Gurwin Techsat 1B 27 Feb 13:26:24 13:31:28 44° 261° (W) 13:36:34 435.225
DX 1 27 Feb 13:28:00 13:31:49 30° 292° (WNW) 13:35:38 434.975-435.025
